Notices

What's New in latest Release from April 7th, 2021:

- Updated Glossary, including Speed of Maximum Gust, and Total Hourly Precipitation

- Updated national and regional climate services offices contacts and prices information

- Addition of station inventory lists for 1981-2010, 1971-2000, and 1961-1990 Normals.

If you haven't already, please take our survey and provide feedback about our website: https://eccc.sondage-survey.ca/f/LanguageSelection.aspx?s=442ca660-fcf1-47c0-95a9-59707d6fd709

Hourly Data Report for April 23, 2012

MIRAMICHI RCS
NEW BRUNSWICK

47°00'34.000" N
65°27'54.000" W
33.00 m
8100989
71744
ACQ

Download Data

Hourly Data (April 2012)
Hourly Data Report for April 23, 2012
TIME
LST
Temp Definition
°C
Dew Point Definition
°C
Rel Hum Definition
%
Precip. Amount Definition
mm

Wind Dir Definition
10's deg

Wind Spd Definition
km/h
Visibility Definition
km
Stn Press Definition
kPa
Hmdx Definition


Wind Chill Definition


Weather Definition


00:00 0.4 -0.8 92   4 11   101.80     LegendNANA
01:00 0.3 -0.7 93   5 19   101.72     LegendNANA
02:00 0.2 -0.7 94   5 22   101.58     LegendNANA
03:00 0.3 -0.7 93   5 17   101.65     LegendNANA
04:00 0.4 -0.6 93   5 17   101.65     LegendNANA
05:00 0.6 -0.9 90   6 26   101.56     LegendNANA
06:00 0.3 -1.0 91   6 26   101.54     LegendNANA
07:00 0.3 -1.0 91   7 26   101.55     LegendNANA
08:00 0.3 -1.0 91   7 28   101.50     LegendNANA
09:00 0.2 -0.9 92   7 26   101.43     LegendNANA
10:00 0.3 -0.7 93   7 28   101.44     LegendNANA
11:00 0.4 -0.5 94   7 30   101.34     LegendNANA
12:00 0.8 -0.1 94   7 35   101.23     LegendNANA
13:00 1.0 0.1 94   6 32   101.14     LegendNANA
14:00 1.3 0.5 94   7 32   101.02     LegendNANA
15:00 1.8 1.0 94   7 32   100.91     LegendNANA
16:00 2.0 1.2 94   7 33   100.76     LegendNANA
17:00 2.2 1.5 95   6 20   100.69     LegendNANA
18:00 2.7 2.1 96   5 19   100.57     LegendNANA
19:00 3.4 2.8 96   7 17   100.43     LegendNANA
20:00 4.9 4.3 96   6 13   100.31     LegendNANA
21:00 6.4 5.8 96   9 11   100.25     LegendNANA
22:00 8.8 8.2 96   6 11   100.14     LegendNANA
23:00 14.5 14.0 97   14 20   100.05     LegendNANA

Notes on Data Quality.

Legend

  • E = Estimated
  • M = Missing
  • NA = Not Available*
  • [empty] = Indicates an unobserved value
Date modified: